This is the latest recevied weather packets stored in our database for station/object KC1OEK-13. If no packets are shown the sender has not sent any weather packets the latest 10 day(s).
| Time | Temp. | Humidity | Pressure | Rain* | Wind** | Luminosity | Snow |
|---|---|---|---|---|---|---|---|
| 1787919861 | 20.56° C | 99% | 1018.1 hPa | 0 mm | - | 82 W/m² | - |
| 1787919559 | 20.56° C | 99% | 1018.2 hPa | 0 mm | - | 77 W/m² | - |
| 1787919256 | 20.56° C | 99% | 1018.1 hPa | 0 mm | - | 61 W/m² | - |
| 1787918950 | 20.56° C | 99% | 1018.4 hPa | 0 mm | - | 67 W/m² | - |
| 1787918640 | 20.56° C | 99% | 1018.3 hPa | 0 mm | - | 64 W/m² | - |
| 1787918337 | 20.56° C | 99% | 1018.1 hPa | 0 mm | - | 62 W/m² | - |
| 1787918032 | 20.56° C | 99% | 1017.9 hPa | 0 mm | - | 53 W/m² | - |
| 1787917727 | 20° C | 99% | 1018.1 hPa | 0 mm | - | 52 W/m² | - |
| 1787917423 | 20° C | 99% | 1018.2 hPa | 0 mm | - | 39 W/m² | - |
| 1787917118 | 20° C | 99% | 1018 hPa | 0 mm | - | 39 W/m² | - |
| 1787916813 | 20° C | 99% | 1018 hPa | 0 mm | - | 37 W/m² | - |
| 1787916513 | 20° C | 99% | 1018 hPa | 0 mm | - | 31 W/m² | - |
| 1787916208 | 20° C | 99% | 1017.9 hPa | 0 mm | - | 25 W/m² | - |
| 1787915903 | 20° C | 99% | 1018 hPa | 0 mm | - | 23 W/m² | - |
| 1787915599 | 20° C | 99% | 1017.9 hPa | 0 mm | - | 19 W/m² | - |
| 1787915298 | 20° C | 99% | 1017.9 hPa | 0 mm | - | 18 W/m² | - |
| 1787914994 | 20° C | 99% | 1018 hPa | 0 mm | - | 14 W/m² | - |
| 1787914692 | 20° C | 99% | 1018 hPa | 0 mm | - | 14 W/m² | - |
| 1787914387 | 20° C | 99% | 1017.8 hPa | 0 mm | - | 11 W/m² | - |
| 1787914082 | 20° C | 99% | 1017.5 hPa | 0 mm | - | 10 W/m² | - |
| 1787913781 | 20° C | 99% | 1017.5 hPa | 0 mm | - | 8 W/m² | - |
| 1787913475 | 20° C | 99% | 1017.5 hPa | 0 mm | - | 6 W/m² | - |
| 1787913170 | 20° C | 99% | 1017.4 hPa | 0 mm | - | 5 W/m² | - |
| 1787912869 | 20° C | 99% | 1017.5 hPa | 0 mm | - | 4 W/m² | - |
| 1787912564 | 19.44° C | 99% | 1017.4 hPa | 0 mm | - | 3 W/m² | - |
* Rain latest hour (hover to see other rain measurements)
** Current wind speed in m/s (hover to see current wind gust speed)